GW5788 Weather Reports


time (UTC)temp
C
wind
direction
speed
KPH
gust
KPH
rain 1hr
cm
rain 24hr
cm
rain mn
cm
humidity
%
barometer
mb
20260507130021 10 160 0.0 0.0 0.00 0.00 0.00 94 1017.4
20260507124528 10 160 0.0 0.0 0.00 0.00 0.00 94 1017.1
20260507123012 11 160 0.0 0.0 0.00 0.00 0.00 94 1017.1
20260507121512 11 160 0.0 0.0 0.00 0.00 0.00 94 1017.2
20260507120018 11 112 0.0 0.0 0.00 0.00 0.00 94 1017.0
20260507114524 11 112 0.0 0.0 0.00 0.00 0.00 94 1017.1
20260507113027 11 112 0.0 0.0 0.00 0.00 0.00 94 1017.0
20260507111510 11 112 0.0 0.0 0.00 0.00 0.00 94 1017.2
20260507110014 11 112 0.0 0.0 0.00 0.00 0.00 94 1017.2
20260507104522 11 112 0.0 0.0 0.00 0.00 0.00 94 1017.3
20260507103029 11 112 0.0 0.0 0.00 0.00 0.00 93 1017.5
20260507101533 11 112 0.0 0.0 0.00 0.00 0.00 93 1017.5
20260507100012 11 112 0.0 0.0 0.00 0.00 0.00 93 1017.5
20260507094516 11 112 0.0 0.0 0.00 0.00 0.00 93 1017.7
20260507093020 11 112 0.0 0.0 0.00 0.00 0.00 93 1017.7
20260507091531 11 112 0.0 0.0 0.00 0.00 0.00 91 1017.7
20260507090026 12 112 0.0 0.0 0.00 0.00 0.00 91 1017.9
20260507084513 12 112 0.0 0.0 0.00 0.00 0.00 92 1018.0
20260507083014 12 112 0.0 0.0 0.00 0.00 0.00 92 1018.1
20260507081523 12 112 0.0 0.0 0.00 0.00 0.00 92 1018.3
20260507080014 12 112 0.0 0.0 0.00 0.00 0.00 91 1018.4
20260507074508 12 112 0.0 0.0 0.00 0.00 0.00 91 1018.5
20260507073012 12 112 0.0 0.0 0.00 0.00 0.00 90 1018.5
20260507071517 12 112 0.0 0.0 0.00 0.00 0.00 90 1018.5
20260507070019 13 112 0.0 0.0 0.00 0.00 0.00 89 1018.6
20260507064516 13 112 0.0 0.0 0.00 0.00 0.00 88 1018.8
20260507063009 13 115 0.0 0.0 0.00 0.00 0.00 88 1018.8
20260507061513 13 115 0.0 0.0 0.00 0.00 0.00 90 1018.8
20260507060020 13 115 0.0 0.0 0.00 0.00 0.00 89 1018.9
20260507054514 13 115 0.0 0.0 0.00 0.00 0.00 89 1018.8
20260507053018 13 115 0.0 0.0 0.00 0.00 0.00 88 1018.8
20260507051513 13 121 0.0 0.0 0.00 0.00 0.00 88 1018.8
20260507050025 13 121 0.0 0.0 0.00 0.00 0.00 86 1018.8
20260507044513 14 121 0.0 0.0 0.00 0.00 0.00 86 1018.8
20260507043016 14 121 0.0 0.0 0.00 0.00 0.00 86 1018.4
20260507041516 14 121 0.0 0.0 0.00 0.00 0.00 85 1018.5
20260507040011 15 212 0.0 0.0 0.00 0.00 0.00 84 1018.4
20260507034521 15 229 0.0 0.0 0.00 0.00 0.00 82 1018.3
20260507033019 15 295 0.0 4.8 0.00 0.00 0.00 79 1018.2
20260507031516 16 212 0.0 4.8 0.00 0.00 0.00 77 1018.1
20260507030019 16 242 0.0 4.8 0.00 0.00 0.00 75 1018.0
20260507024512 16 233 0.0 8.0 0.00 0.00 0.00 73 1017.7
20260507023020 17 210 0.0 8.0 0.00 0.00 0.00 71 1017.7
20260507021518 18 237 1.6 3.2 0.00 0.00 0.00 69 1017.6
20260507020023 18 239 3.2 9.7 0.00 0.00 0.00 69 1017.6
20260507014521 18 226 1.6 11.3 0.00 0.00 0.00 70 1017.5
20260507013011 19 233 3.2 11.3 0.00 0.00 0.00 67 1017.5
20260507011529 20 233 3.2 6.4 0.00 0.00 0.00 63 1017.5
20260507010021 20 238 4.8 11.3 0.00 0.00 0.00 63 1017.5
20260507004519 20 228 1.6 12.9 0.00 0.00 0.00 62 1017.4
20260507003022 20 215 4.8 11.3 0.00 0.00 0.00 60 1017.3
20260507001519 20 215 4.8 12.9 0.00 0.00 0.00 60 1017.1
20260507000022 20 219 6.4 12.9 0.00 0.00 0.00 60 1017.1
20260506234520 21 246 4.8 12.9 0.00 0.00 0.00 59 1016.9
20260506233025 20 176 3.2 12.9 0.00 0.00 0.00 61 1016.8
20260506231524 20 203 4.8 12.9 0.00 0.00 0.00 62 1017.1
20260506230023 20 231 8.0 12.9 0.00 0.00 0.00 61 1017.3
20260506224525 20 223 6.4 17.7 0.00 0.00 0.00 63 1017.2
20260506223025 21 229 6.4 14.5 0.00 0.00 0.00 61 1017.3
20260506221526 21 244 6.4 16.1 0.00 0.00 0.00 61 1017.2
20260506220026 21 200 6.4 17.7 0.00 0.00 0.00 61 1017.4
20260506214525 21 207 4.8 17.7 0.00 0.00 0.00 60 1017.5
20260506213020 21 176 4.8 12.9 0.00 0.00 0.00 60 1017.7
20260506211526 20 220 6.4 16.1 0.00 0.00 0.00 60 1017.7
20260506210032 21 190 6.4 14.5 0.00 0.00 0.00 61 1017.8
20260506204526 21 175 4.8 20.9 0.00 0.00 0.00 60 1017.9
20260506203036 21 235 8.0 16.1 0.00 0.00 0.00 59 1018.0
20260506201522 21 220 8.0 14.5 0.00 0.00 0.00 59 1018.0
20260506200026 21 330 6.4 16.1 0.00 0.00 0.00 58 1018.1
20260506194526 21 254 4.8 12.9 0.00 0.00 0.00 58 1018.2
20260506193016 21 191 3.2 9.7 0.00 0.00 0.00 57 1018.3
20260506191519 21 139 3.2 9.7 0.00 0.00 0.00 58 1018.3
20260506190023 21 246 4.8 17.7 0.00 0.00 0.00 57 1018.5
20260506184526 20 341 3.2 11.3 0.00 0.00 0.00 57 1018.7
20260506183026 20 221 4.8 11.3 0.00 0.00 0.00 58 1018.8
20260506181528 19 35 4.8 11.3 0.00 0.00 0.00 59 1018.9
20260506180026 19 359 1.6 6.4 0.00 0.00 0.00 59 1019.0
20260506174526 18 274 1.6 4.8 0.00 0.00 0.00 62 1019.2
20260506173031 17 297 1.6 8.0 0.00 0.00 0.00 63 1019.5
20260506171529 17 351 1.6 6.4 0.00 0.00 0.00 64 1019.5
20260506170019 17 20 1.6 6.4 0.00 0.00 0.00 66 1019.4
20260506164504 16 299 3.2 9.7 0.00 0.00 0.00 69 1019.4
20260506163005 16 32 1.6 8.0 0.00 0.00 0.00 71 1019.5
20260506161528 16 295 1.6 8.0 0.00 0.00 0.00 74 1019.4
20260506160016 15 316 1.6 8.0 0.00 0.00 0.00 77 1019.4
20260506154521 15 228 0.0 1.6 0.00 0.00 0.00 77 1019.5
20260506153024 15 226 0.0 0.0 0.00 0.10 0.00 76 1019.6
20260506151507 14 226 0.0 1.6 0.00 0.10 0.00 83 1019.6
20260506150026 13 120 0.0 1.6 0.00 0.10 0.00 87 1019.6
20260506144518 12 120 0.0 0.0 0.00 0.10 0.00 92 1019.6
20260506143027 10 120 0.0 0.0 0.00 0.13 0.00 95 1019.5
20260506141523 9 120 0.0 0.0 0.00 0.15 0.00 94 1019.4
20260506140009 8 120 0.0 0.0 0.00 0.15 0.00 94 1019.4
20260506134512 8 120 0.0 0.0 0.00 0.15 0.00 94 1019.3
20260506133018 8 120 0.0 0.0 0.00 0.18 0.00 94 1019.1
20260506131530 8 120 0.0 0.0 0.00 0.18 0.00 94 1019.0